Date String (YYYY-MM-DD hh:mm:ss) UTC,Instrument flags,Ambient pressure (hPa),Sample flow (lpm),Bypass flow (lpm),Sample temperature (°C),Ambient temperature (°C),ASC tube jacket temperature (°C),LED temperature (°C),Box temperature (°C),Sample RH (%),Span deviation,Mass concentration (μg/m³),Mass concentration (μg/m³),Mass concentration (μg/m³)
DateTimeUTC,F1_M11,P_M11,Q1_M11,Q2_M11,T1_M11,T2_M11,T3_M11,T4_M11,T5_M11,U1_M11,ZSPAN_M11,X0_M11,X2_M11,X1_M11
2022-06-30 00:00:00,,0827.4,5.00,0.00,29.1,28.1,00.0,37.8,31.1,24.0,0000.0,0012.27,0004.39,0003.52
2022-06-30 00:01:00,,0827.4,5.00,0.00,29.1,27.8,00.0,37.7,31.0,23.8,0000.0,0011.79,0004.34,0003.52
2022-06-30 00:02:00,,0827.3,5.00,0.00,29.0,27.1,00.0,37.7,30.8,24.0,0000.0,0011.36,0004.34,0003.52
2022-06-30 00:03:00,,0827.4,5.00,0.00,29.0,26.8,00.0,37.7,30.7,24.1,0000.0,0011.33,0004.34,0003.53
2022-06-30 00:04:00,,0827.2,5.00,0.00,28.9,26.9,00.0,37.7,30.7,24.1,0000.0,0011.46,0004.33,0003.53
2022-06-30 00:05:00,,0827.2,4.99,0.00,28.9,27.0,00.0,37.7,30.8,23.3,0000.0,0011.54,0004.36,0003.53
2022-06-30 00:06:00,,0827.2,5.01,0.00,28.9,27.2,00.0,37.7,30.8,22.8,0000.0,0011.77,0004.37,0003.53
2022-06-30 00:07:00,,0827.2,5.00,0.00,28.9,27.4,00.0,37.7,30.9,22.6,0000.0,0012.18,0004.37,0003.53
2022-06-30 00:08:00,,0827.2,5.01,0.00,29.0,27.7,00.0,37.7,31.0,23.3,0000.0,0011.00,0004.32,0003.51
2022-06-30 00:09:00,,0827.1,5.01,0.00,29.0,27.9,00.0,37.7,31.0,23.6,0000.0,0010.16,0004.27,0003.50
2022-06-30 00:10:00,,0827.1,5.00,0.00,29.0,28.0,00.0,37.7,31.1,23.3,0000.0,0009.95,0004.27,0003.50
2022-06-30 00:11:00,,0827.1,5.00,0.00,29.1,28.1,00.0,37.8,31.1,22.0,0000.0,0009.45,0004.25,0003.50
2022-06-30 00:12:00,,0827.0,5.00,0.00,29.1,27.6,00.0,37.7,31.0,22.2,0000.0,0009.69,0004.30,0003.50
2022-06-30 00:13:00,,0827.4,5.00,0.00,29.0,26.9,00.0,37.7,30.8,22.4,0000.0,0010.67,0004.32,0003.50
2022-06-30 00:14:00,,0827.2,5.01,0.00,29.0,26.8,00.0,37.7,30.8,22.0,0000.0,0010.70,0004.30,0003.48
2022-06-30 00:15:00,,0827.0,5.00,0.00,28.9,26.9,00.0,37.7,30.8,21.8,0000.0,0010.58,0004.30,0003.48
2022-06-30 00:16:00,,0827.1,5.00,0.00,28.9,27.1,00.0,37.7,30.8,21.3,0000.0,0010.62,0004.30,0003.46
2022-06-30 00:17:00,,0827.1,5.01,0.00,28.9,27.3,00.0,37.7,30.8,21.4,0000.0,0010.51,0004.30,0003.45
2022-06-30 00:18:00,,0827.1,5.00,0.00,28.9,27.5,00.0,37.7,30.9,21.5,0000.0,0010.05,0004.27,0003.45
2022-06-30 00:19:00,,0827.0,4.99,0.00,29.0,27.7,00.0,37.7,31.0,21.3,0000.0,0010.03,0004.27,0003.45
2022-06-30 00:20:00,,0827.1,5.01,0.00,29.0,27.9,00.0,37.7,31.1,21.1,0000.0,0010.08,0004.27,0003.46
2022-06-30 00:21:00,,0827.4,5.00,0.00,29.1,28.1,00.0,37.8,31.1,21.4,0000.0,0010.13,0004.28,0003.44
2022-06-30 00:22:00,,0827.1,4.99,0.00,29.1,28.2,00.0,37.8,31.2,21.4,0000.0,0010.44,0004.26,0003.44
2022-06-30 00:23:00,,0827.1,5.00,0.00,29.1,27.8,00.0,37.8,31.1,21.6,0000.0,0010.46,0004.25,0003.43
2022-06-30 00:24:00,,0827.0,5.01,0.00,29.1,27.0,00.0,37.7,30.9,21.7,0000.0,0009.48,0004.24,0003.43
2022-06-30 00:25:00,,0827.0,5.00,0.00,29.0,26.9,00.0,37.7,30.8,21.9,0000.0,0009.99,0004.24,0003.42
2022-06-30 00:26:00,,0827.0,5.00,0.00,29.0,26.9,00.0,37.7,30.8,23.0,0000.0,0009.88,0004.24,0003.42
2022-06-30 00:27:00,,0827.0,4.99,0.00,28.9,27.1,00.0,37.7,30.8,23.8,0000.0,0009.72,0004.24,0003.44
2022-06-30 00:28:00,,0827.1,5.02,0.00,29.0,27.3,00.0,37.7,30.9,23.7,0000.0,0009.66,0004.24,0003.46
2022-06-30 00:29:00,,0827.1,5.00,0.00,29.0,27.5,00.0,37.7,30.9,23.7,0000.0,0009.70,0004.25,0003.47
2022-06-30 00:30:00,,0827.1,5.00,0.00,29.0,27.7,00.0,37.7,31.0,23.7,0000.0,0010.92,0004.29,0003.48
2022-06-30 00:31:00,,0827.0,5.01,0.00,29.0,27.9,00.0,37.8,31.1,23.6,0000.0,0011.15,0004.34,0003.49
2022-06-30 00:32:00,,0827.1,5.00,0.00,29.1,28.1,00.0,37.8,31.1,22.5,0000.0,0011.06,0004.31,0003.51
2022-06-30 00:33:00,,0827.1,4.99,0.00,29.1,28.1,00.0,37.8,31.1,22.6,0000.0,0010.62,0004.33,0003.52
2022-06-30 00:34:00,,0827.0,5.00,0.00,29.1,27.5,00.0,37.8,31.0,22.6,0000.0,0010.50,0004.34,0003.54
2022-06-30 00:35:00,,0827.0,5.00,0.00,29.0,26.9,00.0,37.7,30.8,22.9,0000.0,0011.08,0004.39,0003.56
2022-06-30 00:36:00,,0827.0,5.01,0.00,29.0,26.8,00.0,37.7,30.8,23.2,0000.0,0011.12,0004.41,0003.58
2022-06-30 00:37:00,,0827.0,5.00,0.00,29.0,26.9,00.0,37.7,30.8,22.8,0000.0,0011.17,0004.41,0003.60
2022-06-30 00:38:00,,0827.2,5.00,0.00,28.9,27.1,00.0,37.7,30.8,22.6,0000.0,0011.48,0004.41,0003.60
2022-06-30 00:39:00,,0827.1,4.99,0.00,28.9,27.3,00.0,37.7,30.9,22.2,0000.0,0011.56,0004.40,0003.61
2022-06-30 00:40:00,,0827.3,5.00,0.00,29.0,27.5,00.0,37.7,30.9,21.9,0000.0,0011.22,0004.36,0003.60
2022-06-30 00:41:00,,0827.1,5.00,0.00,29.0,27.7,00.0,37.7,31.0,22.0,0000.0,0010.12,0004.34,0003.60
2022-06-30 00:42:00,,0827.1,5.00,0.00,29.0,27.9,00.0,37.8,31.1,22.0,0000.0,0010.06,0004.33,0003.60
2022-06-30 00:43:00,,0827.1,5.00,0.00,29.1,28.1,00.0,37.8,31.1,22.4,0000.0,0010.23,0004.34,0003.59
2022-06-30 00:44:00,,0827.3,5.00,0.00,29.1,28.2,00.0,37.8,31.2,22.8,0000.0,0011.35,0004.34,0003.59
2022-06-30 00:45:00,,0827.3,5.00,0.00,29.1,28.1,00.0,37.8,31.1,22.6,0000.0,0011.89,0004.37,0003.60
2022-06-30 00:46:00,,0827.1,4.99,0.00,29.1,27.3,00.0,37.8,31.0,22.0,0000.0,0012.07,0004.36,0003.60
2022-06-30 00:47:00,,0827.1,5.00,0.00,29.0,26.9,00.0,37.7,30.8,22.2,0000.0,0011.71,0004.35,0003.59
2022-06-30 00:48:00,,0827.2,4.99,0.00,29.0,26.9,00.0,37.7,30.8,22.7,0000.0,0011.82,0004.33,0003.57
2022-06-30 00:49:00,,0827.4,5.00,0.00,28.9,27.0,00.0,37.7,30.8,23.0,0000.0,0011.50,0004.30,0003.57
2022-06-30 00:50:00,,0827.2,4.99,0.00,28.9,27.1,00.0,37.7,30.8,23.3,0000.0,0012.38,0004.32,0003.56
2022-06-30 00:51:00,,0827.3,5.00,0.00,29.0,27.3,00.0,37.7,30.9,23.4,0000.0,0013.05,0004.37,0003.56
2022-06-30 00:52:00,,0827.3,5.00,0.00,29.0,27.6,00.0,37.7,30.9,23.7,0000.0,0013.19,0004.41,0003.57
2022-06-30 00:53:00,,0827.2,5.02,0.00,29.0,27.8,00.0,37.8,31.0,23.9,0000.0,0013.46,0004.46,0003.58
2022-06-30 00:54:00,,0827.1,5.01,0.00,29.0,27.9,00.0,37.8,31.1,24.2,0000.0,0015.28,0004.48,0003.59
2022-06-30 00:55:00,,0827.0,4.99,0.00,29.1,28.1,00.0,37.8,31.1,24.0,0000.0,0014.36,0004.51,0003.61
2022-06-30 00:56:00,,0827.0,4.99,0.00,29.1,28.1,00.0,37.8,31.1,24.1,0000.0,0014.39,0004.54,0003.60
2022-06-30 00:57:00,,0827.1,5.00,0.00,29.1,27.4,00.0,37.7,31.0,24.2,0000.0,0014.18,0004.51,0003.60
2022-06-30 00:58:00,,0827.1,5.01,0.00,29.0,26.8,00.0,37.7,30.8,24.4,0000.0,0014.76,0004.58,0003.62
2022-06-30 00:59:00,,0827.1,5.00,0.00,29.0,26.8,00.0,37.7,30.7,24.6,0000.0,0014.59,0004.64,0003.65
